Wind_Speed
14 13 13 13 14 14 15 15 16 16 16 17 18 17 18 18 18 18 18 18 18 18 18 18 18 18 18 18 17 17 17 17 17 16 16 16 16 16 15 15 15 15 15
15 15 14 14 15 15 16 16 16 17 18 18 18 18 18 18 18 18 18 19 19 19 19 19 18 18 18 18 18 18 18 18 18 17 17 17 16 15 15 15 16 15 15
15 15 15 15 15 15 16 16 17 17 18 19 18 18 18 19 19 19 19 20 20 20 19 19 19 18 19 19 19 19 19 19 19 18 18 17 17 16 16 16 16 16 16
17 16 16 15 15 15 16 16 17 18 18 18 17 18 18 19 19 19 20 20 21 20 20 19 19 19 19 19 19 19 19 19 19 19 19 19 18 17 17 17 17 16 16
18 17 17 16 16 16 16 16 17 17 17 17 17 17 18 18 19 19 19 19 19 19 19 19 19 20 20 19 19 19 20 20 20 20 19 20 19 19 19 18 19 18 18
18 18 18 18 18 18 17 17 18 18 18 18 18 18 19 20 20 19 19 19 19 19 19 19 20 20 20 19 20 20 20 20 20 20 20 20 21 21 20 19 19 20 19
20 20 19 19 19 19 19 19 19 19 18 18 19 19 19 19 19 19 19 19 20 20 20 20 21 21 21 20 20 21 22 21 21 21 21 20 20 21 20 20 20 21 20
22 21 21 21 20 21 22 21 20 20 20 20 20 20 20 20 20 20 20 20 21 21 21 21 21 22 22 22 21 22 22 22 22 22 22 21 20 20 21 21 22 22 23
23 23 23 23 22 23 23 23 23 22 22 22 22 22 22 22 22 22 21 22 22 22 22 22 22 23 23 23 22 22 22 22 22 22 22 22 21 22 22 22 23 23 24
24 24 24 24 24 24 24 24 23 23 23 23 23 23 23 24 23 23 23 24 24 24 24 24 23 23 23 23 23 23 23 23 23 23 23 24 24 23 24 23 24 24 24
25 25 25 25 25 25 25 25 24 24 24 24 24 24 24 24 24 24 24 25 25 25 25 24 24 24 24 23 23 23 23 23 24 24 24 24 25 25 25 25 25 26 26
26 26 25 25 26 26 26 25 25 25 25 25 25 25 25 25 25 25 25 26 25 25 26 26 25 25 25 24 25 25 24 24 25 25 25 25 25 25 26 26 27 27 27
27 27 26 27 27 27 27 27 27 27 27 27 27 26 26 26 26 26 26 26 25 26 26 26 27 27 27 26 27 27 26 26 26 26 26 26 26 26 26 26 27 27 28
28 28 28 28 29 29 29 29 29 28 28 27 27 27 27 26 27 27 27 27 27 28 28 27 28 28 28 27 27 28 27 27 27 28 28 28 28 28 28 27 28 28 29
29 29 30 30 30 29 30 29 29 29 29 28 29 28 28 28 28 29 29 29 29 29 30 30 30 29 29 28 28 29 29 28 28 28 28 28 29 28 28 29 29 30 30
29 29 30 30 30 30 29 29 29 30 30 30 30 30 29 30 30 30 30 30 30 31 31 30 29 29 29 29 29 29 29 30 29 29 28 28 29 29 29 30 30 31 31
30 30 31 31 30 30 30 30 30 30 30 30 30 30 30 30 30 29 29 30 30 31 30 30 29 29 29 28 29 30 30 30 30 30 29 29 29 30 30 30 31 31 31
31 31 31 31 31 30 30 30 29 30 30 30 30 31 30 29 29 29 30 30 30 30 30 30 30 29 29 29 29 30 30 30 30 31 30 30 29 29 30 30 31 31 31
31 31 31 31 31 30 29 29 30 30 31 30 30 30 30 30 30 30 31 31 30 30 30 30 30 31 31 31 30 30 31 31 31 31 31 31 31 30 29 29 29 29 29
31 31 31 31 31 30 30 31 31 32 31 31 30 30 31 31 31 31 31 31 31 31 31 31 31 31 31 31 31 31 31 31 31 31 31 32 31 31 30 29 29 29 30
31 31 31 30 31 31 32 32 32 32 32 31 31 31 32 32 32 32 32 32 31 31 32 32 32 31 31 31 31 31 32 31 31 31 31 31 31 31 30 29 29 30 30
31 31 31 31 31 32 32 32 32 31 31 31 31 31 32 32 33 32 31 31 31 31 31 32 32 31 31 31 31 31 31 31 31 31 31 31 31 31 31 30 30 31 31
31 31 30 31 31 31 31 31 31 31 31 31 32 31 31 31 30 29 29 30 30 31 30 30 30 30 31 31 31 31 31 31 31 31 31 31 31 30 30 31 31 32 32
30 29 29 30 30 30 30 30 30 31 31 31 30 29 29 28 28 27 28 28 28 28 29 29 30 30 30 31 31 31 31 30 30 30 30 31 31 31 31 31 31 32 32
29 28 27 27 28 29 29 29 29 29 28 28 28 28 28 28 27 27 27 27 28 28 29 29 29 29 30 30 31 31 31 31 30 30 30 30 31 30 30 31 32 32 32
28 28 27 27 27 27 27 27 26 26 26 26 27 27 27 27 27 27 27 28 28 29 29 30 30 30 30 30 31 31 30 30 30 30 30 30 30 30 30 31 32 32 32
Wind_Direction
284 283 284 282 280 281 281 284 285 287 290 287 292 291 289 287 288 288 289 290 290 292 289 285 284 285 286 287 288 285 285 287 288 283 283 280 277 274 270 268 266 264 261
281 281 280 281 281 282 281 284 284 287 289 291 291 291 288 287 287 286 288 289 289 290 288 286 285 283 285 286 287 285 282 282 282 280 279 279 276 275 271 267 265 263 263
281 286 282 281 283 283 283 283 285 287 289 290 290 288 287 287 288 287 288 287 287 287 287 284 285 283 283 284 284 284 282 280 280 278 273 273 273 273 272 268 265 263 262
282 283 285 283 282 282 283 284 286 288 289 289 289 289 288 288 289 288 287 287 287 286 286 285 284 284 285 284 283 282 282 280 279 278 272 271 271 271 271 269 265 264 263
280 281 282 283 283 284 286 289 291 292 290 291 292 292 293 292 292 293 291 290 289 288 286 284 283 282 283 283 282 282 282 282 281 280 274 268 268 268 267 267 265 263 263
277 279 281 283 285 286 286 290 293 293 292 291 292 292 293 292 292 294 294 292 291 290 288 286 285 282 281 282 281 280 282 283 283 282 280 272 268 266 264 264 265 265 264
277 278 279 281 285 286 286 288 290 292 291 289 291 292 293 292 292 293 294 292 291 290 289 287 286 284 283 283 283 281 280 280 281 281 281 277 271 267 264 262 261 261 264
277 277 279 282 283 284 285 285 288 289 290 289 291 292 292 292 291 290 291 290 289 289 290 288 287 285 283 282 283 282 281 280 279 279 279 277 271 267 265 265 263 264 262
275 275 277 279 281 282 283 283 285 286 286 287 289 290 290 290 290 290 290 289 288 288 289 289 288 286 284 282 282 282 282 280 278 278 278 276 273 269 266 265 264 264 264
273 274 275 277 279 280 282 283 283 283 285 286 286 287 288 289 288 287 287 288 288 288 290 290 289 288 285 283 282 282 281 279 279 278 277 276 274 272 270 267 266 265 265
275 274 275 276 277 278 280 281 280 282 283 285 285 286 287 288 287 286 287 288 288 287 287 288 288 288 287 284 282 281 282 280 279 278 277 275 273 271 272 271 268 267 266
274 276 276 275 276 276 277 278 279 282 283 285 286 286 287 287 287 287 287 288 286 286 286 286 286 287 286 284 281 281 280 279 278 277 277 276 273 272 271 271 269 268 266
273 273 273 274 275 274 275 276 278 280 282 283 285 286 286 286 287 288 288 287 286 286 286 286 284 284 285 284 282 281 280 278 277 276 275 276 275 273 273 272 269 268 266
272 273 273 274 274 273 273 275 278 280 281 282 283 284 283 284 285 286 287 287 286 287 287 287 285 284 285 284 283 281 281 279 277 275 274 274 275 275 274 273 273 272 271
274 275 275 276 276 275 275 275 276 278 280 282 283 283 283 283 285 285 285 286 286 286 288 288 286 284 284 283 282 281 280 279 278 277 275 273 274 275 274 273 274 273 272
275 276 277 276 276 277 276 274 275 277 279 280 282 283 283 284 285 285 285 286 287 287 288 287 286 283 282 282 281 280 278 278 277 276 276 275 274 274 274 274 275 275 274
273 275 276 275 276 277 277 277 278 278 279 280 282 282 282 283 284 285 287 288 289 289 288 288 286 283 282 281 280 279 278 278 277 276 275 274 274 274 274 274 274 273 273
272 273 273 275 276 276 278 278 277 278 279 280 281 282 283 284 285 286 288 288 289 289 289 289 286 283 282 282 281 279 278 278 277 275 274 274 274 274 274 273 273 272 272
271 272 273 275 275 276 278 278 277 278 279 280 280 280 281 283 284 285 287 287 287 287 288 288 286 283 281 281 281 279 277 277 276 274 273 273 274 274 274 273 273 272 272
271 272 274 275 274 275 277 278 278 278 278 279 280 280 281 282 283 284 285 285 286 286 286 286 285 284 282 281 280 278 277 276 276 275 273 273 273 274 274 273 271 271 271
271 272 273 274 273 274 275 275 277 278 278 278 279 279 279 281 282 283 283 284 285 285 284 285 285 284 282 280 280 280 278 277 277 276 275 274 273 272 272 272 271 270 271
269 272 273 272 272 274 274 274 276 277 278 278 279 280 280 280 281 282 282 283 284 285 285 285 284 283 282 281 281 280 280 279 278 276 274 275 274 272 271 270 270 270 270
269 271 273 272 273 274 274 275 276 277 278 279 280 279 279 279 280 281 282 283 284 285 286 285 285 284 282 281 281 281 280 279 277 275 273 272 272 271 270 270 270 271 271
270 270 272 272 271 272 275 278 278 279 279 278 278 278 279 280 280 281 282 282 284 286 286 287 287 285 282 281 280 281 281 279 277 277 274 271 271 271 271 271 271 271 269
271 269 271 270 271 274 277 279 279 279 278 278 278 279 280 280 281 282 282 283 285 287 287 288 288 287 284 282 281 281 281 279 276 275 274 272 272 271 271 271 271 270 270
272 271 271 272 272 275 278 280 281 279 278 279 279 281 281 280 282 282 283 284 285 286 288 288 287 287 287 286 284 283 282 279 276 274 273 273 272 272 271 271 272 271 271
Height
5851 5850 5849 5848 5847 5847 5846 5845 5843 5841 5841 5840 5839 5838 5837 5836 5835 5834 5833 5832 5831 5830 5829 5828 5826 5825 5824 5823 5822 5821 5820 5819 5818 5818 5817 5816 5815 5815 5814 5814 5814 5814 5814
5847 5846 5845 5844 5843 5842 5841 5840 5839 5838 5837 5836 5834 5833 5832 5831 5830 5829 5828 5827 5826 5824 5823 5822 5821 5820 5819 5818 5817 5816 5815 5814 5813 5812 5811 5811 5810 5810 5809 5809 5809 5809 5809
5842 5841 5840 5839 5838 5837 5836 5835 5834 5833 5832 5831 5829 5828 5826 5825 5824 5823 5822 5821 5820 5819 5818 5816 5815 5814 5813 5812 5811 5810 5809 5808 5807 5807 5806 5806 5805 5804 5804 5804 5804 5804 5804
5837 5837 5836 5835 5833 5832 5831 5830 5829 5828 5827 5825 5824 5822 5821 5820 5819 5818 5816 5815 5814 5813 5812 5811 5810 5809 5808 5807 5805 5804 5803 5803 5802 5801 5800 5800 5800 5799 5799 5799 5799 5800 5800
5832 5832 5831 5830 5829 5828 5827 5826 5824 5823 5822 5820 5819 5817 5816 5814 5813 5812 5810 5809 5808 5807 5806 5805 5804 5803 5802 5801 5800 5799 5798 5797 5796 5795 5794 5794 5794 5794 5794 5794 5794 5794 5794
5827 5827 5826 5825 5824 5823 5822 5821 5820 5818 5816 5815 5814 5812 5811 5809 5807 5806 5805 5804 5802 5801 5800 5799 5798 5797 5796 5795 5794 5793 5792 5791 5790 5789 5788 5788 5788 5788 5788 5788 5788 5788 5789
5822 5821 5821 5820 5819 5818 5817 5816 5814 5813 5811 5810 5808 5807 5805 5803 5802 5801 5799 5798 5797 5796 5794 5793 5792 5791 5790 5789 5788 5787 5786 5785 5784 5783 5782 5782 5782 5781 5781 5782 5782 5782 5783
5816 5815 5815 5814 5814 5813 5812 5810 5809 5807 5805 5804 5803 5801 5800 5798 5796 5795 5793 5792 5791 5789 5788 5787 5785 5784 5783 5782 5781 5780 5779 5778 5778 5777 5776 5776 5775 5775 5775 5775 5775 5775 5776
5809 5809 5808 5808 5807 5806 5805 5804 5803 5801 5799 5798 5796 5795 5793 5792 5790 5788 5787 5786 5784 5783 5781 5780 5778 5777 5776 5775 5775 5774 5773 5772 5771 5770 5769 5769 5768 5768 5768 5768 5768 5768 5768
5801 5801 5801 5800 5800 5799 5798 5797 5795 5794 5793 5791 5789 5788 5787 5785 5783 5781 5780 5779 5777 5776 5774 5773 5771 5770 5769 5768 5767 5766 5766 5765 5764 5763 5762 5762 5761 5761 5760 5761 5761 5761 5761
5794 5794 5793 5793 5792 5791 5790 5789 5788 5787 5785 5784 5782 5781 5779 5778 5776 5774 5772 5771 5769 5768 5767 5765 5764 5763 5761 5760 5759 5759 5758 5757 5757 5756 5755 5754 5754 5753 5753 5753 5753 5753 5753
5786 5786 5785 5785 5784 5783 5783 5782 5780 5779 5778 5776 5775 5773 5772 5770 5768 5766 5765 5763 5761 5760 5759 5757 5756 5755 5754 5752 5751 5750 5750 5749 5748 5748 5747 5747 5746 5746 5745 5745 5745 5745 5745
5777 5777 5777 5776 5776 5775 5774 5773 5772 5771 5770 5768 5767 5765 5764 5762 5760 5759 5757 5755 5753 5752 5750 5749 5747 5746 5745 5744 5743 5742 5741 5740 5740 5739 5739 5739 5738 5738 5737 5737 5736 5736 5736
5769 5768 5768 5767 5766 5766 5765 5764 5763 5762 5761 5760 5758 5757 5756 5754 5753 5751 5749 5747 5745 5744 5742 5740 5739 5737 5736 5735 5734 5733 5732 5731 5731 5730 5730 5730 5730 5729 5729 5728 5728 5728 5728
5761 5760 5759 5758 5757 5756 5755 5755 5754 5753 5752 5751 5750 5748 5747 5746 5744 5742 5740 5738 5736 5735 5733 5731 5729 5728 5727 5726 5725 5724 5723 5723 5722 5721 5721 5721 5721 5721 5720 5720 5719 5719 5719
5751 5751 5750 5749 5748 5747 5746 5745 5744 5743 5742 5741 5740 5739 5737 5736 5734 5733 5731 5729 5727 5725 5723 5721 5720 5719 5718 5717 5716 5715 5714 5714 5713 5712 5712 5712 5711 5711 5711 5710 5710 5710 5709
5742 5742 5741 5740 5739 5738 5737 5736 5735 5734 5733 5732 5730 5729 5728 5726 5725 5723 5721 5719 5718 5715 5713 5712 5711 5710 5709 5708 5707 5706 5705 5704 5704 5703 5702 5702 5701 5701 5701 5701 5700 5700 5700
5733 5732 5732 5731 5730 5729 5728 5727 5726 5725 5724 5722 5721 5719 5718 5716 5715 5713 5712 5710 5708 5706 5704 5702 5701 5700 5699 5698 5697 5696 5695 5694 5694 5693 5693 5692 5692 5691 5691 5691 5690 5690 5690
5723 5723 5722 5721 5720 5719 5718 5717 5716 5715 5714 5712 5711 5709 5708 5706 5705 5703 5701 5700 5698 5696 5694 5692 5691 5689 5688 5688 5687 5685 5684 5684 5683 5683 5682 5682 5682 5681 5681 5680 5680 5680 5680
5713 5712 5712 5711 5710 5709 5708 5707 5706 5705 5704 5702 5701 5699 5698 5696 5695 5693 5691 5690 5688 5686 5684 5683 5681 5679 5678 5677 5676 5675 5674 5673 5673 5672 5672 5671 5671 5671 5671 5670 5670 5670 5670
5703 5703 5702 5701 5701 5699 5698 5697 5696 5695 5694 5692 5691 5689 5687 5686 5685 5683 5681 5680 5678 5676 5674 5672 5671 5669 5668 5667 5665 5664 5663 5663 5662 5661 5661 5661 5660 5660 5660 5660 5660 5660 5660
5693 5693 5692 5691 5691 5690 5688 5687 5686 5685 5683 5682 5680 5679 5677 5675 5673 5672 5671 5669 5667 5665 5663 5662 5660 5659 5657 5656 5655 5654 5653 5652 5651 5650 5650 5650 5650 5650 5650 5650 5650 5650 5650
5683 5683 5682 5681 5680 5680 5678 5677 5676 5674 5673 5671 5670 5668 5666 5664 5662 5661 5660 5659 5657 5655 5653 5651 5650 5648 5647 5645 5644 5643 5642 5641 5641 5640 5640 5640 5640 5639 5639 5639 5639 5639 5639
5673 5673 5672 5671 5670 5669 5668 5667 5666 5664 5663 5661 5659 5657 5656 5654 5652 5651 5650 5648 5647 5645 5643 5641 5640 5638 5637 5635 5634 5633 5632 5631 5630 5630 5629 5629 5629 5629 5629 5628 5628 5628 5628
5663 5663 5662 5661 5660 5660 5659 5657 5656 5654 5653 5651 5649 5648 5646 5645 5643 5642 5641 5639 5638 5636 5634 5632 5630 5628 5626 5625 5623 5622 5621 5620 5620 5619 5619 5619 5618 5618 5618 5618 5617 5617 5617
5654 5653 5653 5652 5651 5650 5649 5648 5647 5645 5644 5642 5641 5639 5638 5636 5635 5633 5632 5630 5628 5626 5624 5622 5620 5618 5617 5615 5614 5612 5611 5610 5609 5609 5609 5609 5608 5608 5607 5607 5606 5606 5606